CW9773 Weather Reports


Display with metric or nautical units.
time (UTC)temp
F
wind
direction
speed
MPH
gust
MPH
rain 1hr
in
rain 24hr
in
rain mn
in
humidity
%
barometer
mb
20210727080125 65 272 0.0 0.0 0.00 0.04 0.00 94 1013.1
20210727074513 65 272 0.0 0.0 0.00 0.04 0.00 94 1013.2
20210727073106 65 272 0.0 0.0 0.00 0.04 0.00 94 1013.4
20210727071529 66 272 0.0 0.0 0.00 0.04 0.00 95 1013.4
20210727070126 66 272 0.0 0.0 0.00 0.04 0.00 95 1013.6
20210727064557 66 272 0.0 0.0 0.00 0.04 0.00 95 1013.6
20210727063142 66 272 0.0 0.0 0.00 0.04 0.00 94 1013.7
20210727061604 66 272 0.0 0.0 0.00 0.04 0.00 94 1013.6
20210727060016 66 272 0.0 0.0 0.00 0.04 0.00 94 1013.7
20210727054718 66 272 0.0 0.0 0.00 0.04 0.00 94 1013.7
20210727053007 67 272 0.0 0.0 0.00 0.04 0.00 94 1013.3
20210727051641 67 272 0.0 0.0 0.00 0.04 0.00 94 1013.0
20210727050038 67 272 0.0 0.0 0.00 0.04 0.00 94 1012.8
20210727044700 67 272 0.0 0.0 0.00 0.04 0.00 94 1013.0
20210727043031 67 272 0.0 0.0 0.00 0.04 0.00 94 1013.1
20210727041736 67 272 0.0 0.0 0.00 0.04 0.00 94 1013.1
20210727040048 67 272 0.0 0.0 0.00 0.04 0.00 93 1012.9
20210727034638 68 272 0.0 0.0 0.00 0.04 0.04 94 1013.0
20210727033051 68 272 0.0 0.0 0.00 0.04 0.04 94 1013.1
20210727031507 68 272 0.0 0.0 0.00 0.04 0.04 93 1013.3
20210727030126 68 272 0.0 0.0 0.00 0.04 0.04 94 1013.5
20210727024536 68 272 0.0 0.0 0.00 0.04 0.04 93 1013.6
20210727023125 69 272 0.0 0.0 0.00 0.04 0.04 93 1013.6
20210727021651 69 272 0.0 0.0 0.00 0.04 0.04 93 1013.3
20210727020156 69 272 0.0 0.0 0.00 0.04 0.04 93 1013.1
20210727014602 70 272 0.0 0.0 0.00 0.04 0.04 93 1013.0
20210727013220 70 272 0.0 0.0 0.00 0.04 0.04 93 1013.2
20210727011711 71 272 0.0 0.0 0.00 0.04 0.04 93 1013.2
20210727010009 71 272 0.0 0.0 0.00 0.04 0.04 93 1013.1
20210727004657 71 272 0.0 0.0 0.00 0.04 0.04 93 1013.2
20210727003037 72 272 0.0 0.0 0.00 0.04 0.04 94 1012.9
20210727001712 72 272 0.0 0.0 0.00 0.04 0.04 95 1012.7
20210727000025 72 272 0.0 0.0 0.00 0.04 0.04 95 1012.6
20210726234646 73 272 0.0 0.0 0.00 0.04 0.04 95 1012.5
20210726233050 73 272 0.0 1.0 0.00 0.04 0.04 95 1012.1
20210726231711 73 272 0.0 0.0 0.00 0.04 0.04 95 1012.0
20210726230042 73 272 0.0 0.0 0.01 0.04 0.04 95 1011.7
20210726224520 72 272 0.0 0.0 0.03 0.04 0.04 94 1011.7
20210726223042 72 272 0.0 0.0 0.04 0.04 0.04 90 1012.1
20210726221525 74 272 0.0 0.0 0.04 0.04 0.04 85 1012.2
20210726220119 76 272 0.0 1.0 0.03 0.03 0.03 83 1011.6
20210726214535 77 272 0.0 0.0 0.01 0.01 0.01 83 1012.1
20210726213127 77 272 0.0 1.0 0.00 0.00 0.00 82 1012.1
20210726213004 77 272 0.0 1.0 0.00 0.00 0.00 82 1012.0
20210726211615 78 272 0.0 2.0 0.00 0.00 0.00 82 1011.8
20210726210021 78 272 0.0 0.0 0.00 0.00 0.00 82 1011.2
20210726204651 78 272 0.0 0.0 0.00 0.00 0.00 84 1011.4
20210726203059 78 272 0.0 0.0 0.00 0.00 0.00 82 1011.4
20210726201708 79 272 0.0 0.0 0.00 0.00 0.00 82 1011.3
20210726200051 79 272 0.0 0.0 0.00 0.00 0.00 81 1011.2
20210726194646 80 272 0.0 4.0 0.00 0.00 0.00 80 1011.3
20210726193038 83 228 0.0 4.0 0.00 0.00 0.00 70 1011.4
20210726191756 84 200 0.0 1.0 0.00 0.00 0.00 79 1011.5
20210726191502 84 200 0.0 1.0 0.00 0.00 0.00 78 1011.5
20210726190118 83 200 0.0 0.0 0.00 0.00 0.00 79 1011.6
20210726184514 83 200 1.0 5.0 0.00 0.00 0.00 68 1011.6
20210726183104 83 173 0.0 3.0 0.00 0.00 0.00 73 1011.7
20210726181526 80 173 0.0 2.0 0.00 0.00 0.00 75 1011.8
20210726180225 79 261 0.0 3.0 0.00 0.00 0.00 77 1011.8
20210726174551 81 261 0.0 4.0 0.00 0.00 0.00 76 1011.8
20210726173149 79 261 0.0 3.0 0.00 0.00 0.00 81 1011.8
20210726171526 78 261 0.0 3.0 0.00 0.00 0.00 82 1012.0
20210726170150 78 189 0.0 1.0 0.00 0.00 0.00 84 1012.1
20210726164525 82 190 0.0 4.0 0.00 0.00 0.00 78 1012.3
20210726163120 80 178 0.0 1.0 0.00 0.00 0.00 81 1012.2
20210726161545 81 177 0.0 3.0 0.00 0.00 0.00 80 1012.4
20210726160146 82 207 0.0 3.0 0.00 0.00 0.00 80 1012.5
20210726154625 79 207 0.0 2.0 0.00 0.00 0.00 79 1012.7
20210726153228 80 198 0.0 3.0 0.00 0.00 0.00 78 1012.6
20210726151608 79 348 0.0 1.0 0.00 0.00 0.00 82 1012.7
20210726150152 78 349 0.0 2.0 0.00 0.00 0.00 83 1012.7
20210726144635 76 218 0.0 1.0 0.00 0.00 0.00 86 1012.7
20210726143208 76 340 0.0 4.0 0.00 0.00 0.00 86 1012.9
20210726141616 74 229 0.0 1.0 0.00 0.00 0.00 88 1012.9
20210726140210 73 229 0.0 2.0 0.00 0.00 0.00 91 1012.9
20210726134544 71 229 0.0 1.0 0.00 0.00 0.00 94 1013.0
20210726133134 70 229 0.0 2.0 0.00 0.00 0.00 95 1013.0
20210726131615 69 229 0.0 1.0 0.00 0.00 0.00 96 1013.1
20210726130107 68 229 0.0 0.0 0.00 0.00 0.00 95 1013.2
20210726124635 68 228 0.0 0.0 0.00 0.00 0.00 95 1013.4
20210726123004 68 229 0.0 0.0 0.00 0.00 0.00 95 1013.4
20210726121551 68 229 0.0 0.0 0.00 0.00 0.00 95 1013.4
20210726120021 67 229 0.0 0.0 0.00 0.00 0.00 95 1013.4
20210726114713 66 229 0.0 0.0 0.00 0.00 0.00 95 1013.3
20210726113011 66 229 0.0 0.0 0.00 0.00 0.00 94 1013.1
20210726110229 66 229 0.0 0.0 0.00 0.00 0.00 94 1012.9
20210726110004 66 229 0.0 0.0 0.00 0.00 0.00 94 1012.9
20210726104619 66 229 0.0 0.0 0.00 0.00 0.00 94 1012.8
20210726103009 66 229 0.0 0.0 0.00 0.00 0.00 94 1012.5
20210726101627 67 229 0.0 0.0 0.00 0.00 0.00 94 1012.3
20210726100052 67 229 0.0 0.0 0.00 0.00 0.00 94 1012.4
20210726094618 67 229 0.0 0.0 0.00 0.00 0.00 94 1012.3
20210726093050 67 229 0.0 0.0 0.00 0.00 0.00 94 1012.2
20210726091711 67 229 0.0 0.0 0.00 0.00 0.00 94 1012.3
20210726090049 67 229 0.0 0.0 0.00 0.00 0.00 94 1012.4
20210726084516 67 229 0.0 0.0 0.00 0.00 0.00 94 1012.3
20210726083152 67 228 0.0 0.0 0.00 0.00 0.00 94 1012.2